SCP
0 0 0 0 0 0 0 0 0 0 0 0 0 0 0 0 0 0 0 0 0 0 0 0 0 0 0 0 0 0 0 1 0 0 0 0 0 0 0 0 1 1 1
0 0 0 0 0 0 0 0 0 0 0 0 0 0 0 0 0 0 0 0 0 0 0 0 0 0 0 0 0 0 0 0 0 0 0 0 0 0 0 0 0 0 1
0 0 0 0 0 0 0 0 0 0 0 0 0 0 0 0 0 0 0 0 0 0 0 0 0 0 0 0 0 0 0 0 0 0 0 0 0 0 0 0 0 0 0
0 1 1 1 0 0 0 0 0 0 0 0 0 0 0 0 0 0 0 0 0 0 0 0 0 0 0 0 0 0 0 0 0 0 0 0 0 0 0 0 0 0 0
1 1 0 0 0 0 0 0 0 0 0 0 0 0 0 0 0 0 0 0 0 0 0 0 0 0 0 0 0 0 0 0 0 0 0 0 0 0 0 0 0 0 0
1 0 0 0 0 0 0 0 0 0 0 0 0 0 0 0 0 0 0 0 0 0 0 0 0 0 0 0 0 0 0 0 0 0 0 0 0 0 0 0 0 0 0
0 0 0 0 0 0 0 0 0 0 0 0 0 0 0 0 0 0 0 0 0 0 0 0 0 0 0 0 0 0 0 0 0 0 0 0 0 0 0 0 0 0 0
0 0 0 0 0 0 0 0 0 0 0 0 0 0 0 0 0 0 0 0 0 0 0 0 0 0 0 0 0 0 0 0 0 0 0 0 0 0 0 0 0 0 0
0 0 0 0 0 0 0 0 0 0 0 0 0 0 0 0 0 0 0 0 0 0 0 0 0 0 0 0 0 0 0 0 0 0 0 0 0 0 0 0 0 0 0
0 0 0 0 0 0 0 0 0 0 0 0 0 0 0 0 0 0 0 0 0 0 0 0 0 0 0 0 0 0 0 0 0 0 0 0 0 0 0 0 0 0 0
0 0 0 0 0 0 0 0 0 0 0 0 0 0 0 0 0 0 0 0 0 0 0 0 0 0 0 0 0 0 0 0 0 0 0 0 0 0 0 0 0 0 0
0 0 0 0 0 0 0 0 0 0 0 0 0 0 0 0 0 0 0 0 0 0 0 0 0 0 0 0 0 0 0 0 0 0 0 0 0 0 0 0 0 0 0
0 0 0 0 0 0 0 0 0 0 0 0 0 0 0 0 0 0 0 0 0 0 0 0 0 0 0 0 0 0 0 0 0 0 0 0 0 0 0 0 0 0 0
0 0 0 0 0 0 0 0 0 0 0 0 0 0 0 0 0 0 0 0 0 0 0 0 0 0 0 0 0 0 0 0 0 0 0 0 0 0 0 0 0 0 0
0 0 0 0 0 0 0 0 0 0 0 0 0 0 0 0 0 0 0 0 0 0 0 0 0 0 0 0 0 0 0 0 0 0 0 0 0 0 0 0 0 0 0
0 0 0 0 0 0 0 0 0 0 0 0 0 0 0 0 0 0 0 0 0 0 0 0 0 0 0 0 0 0 0 0 0 0 0 0 0 0 0 0 0 0 0
0 0 0 0 0 0 0 0 0 0 0 0 0 0 0 0 0 0 0 0 0 0 0 0 0 0 0 0 0 0 0 0 0 0 0 0 0 0 0 0 0 0 0
0 0 0 0 0 0 0 0 0 0 0 0 0 0 0 0 0 0 0 0 0 0 0 0 0 0 0 0 0 0 0 0 0 0 0 0 0 0 0 0 0 0 0
0 0 0 0 0 0 0 0 0 0 0 0 0 0 0 0 0 0 0 0 0 0 0 0 0 0 0 0 0 0 0 0 0 0 0 0 0 0 0 0 0 0 0
0 0 0 0 0 0 0 0 0 0 0 0 0 0 0 0 0 0 0 0 0 0 0 0 0 0 0 0 0 0 0 0 0 0 0 0 0 0 0 0 0 0 0
0 0 0 0 0 0 0 0 0 0 0 0 0 0 0 0 0 0 0 0 0 0 0 0 0 0 0 0 0 0 0 0 0 0 0 0 0 0 0 0 0 0 0
0 0 0 0 0 0 0 0 0 0 0 0 0 0 0 0 0 0 0 0 0 0 0 0 0 0 0 0 0 0 0 0 0 0 0 0 0 0 0 0 0 0 0
0 0 0 0 0 0 0 0 0 0 0 0 0 0 0 0 0 0 0 0 0 0 0 0 0 0 0 0 0 0 0 0 0 0 0 0 0 0 0 0 0 0 0
0 0 0 0 0 0 0 0 0 0 0 0 0 0 0 0 0 0 0 0 0 0 0 0 0 0 0 0 0 0 0 0 0 0 0 0 0 0 0 0 0 0 0
0 0 0 0 0 0 0 0 0 0 0 0 0 0 0 0 0 0 0 0 0 0 0 0 0 0 0 0 0 0 0 0 0 0 0 0 0 0 0 0 0 0 0
0 0 0 0 0 0 0 0 0 0 0 0 0 0 0 0 0 0 0 0 0 0 0 0 0 0 0 0 0 0 0 0 0 0 0 0 0 0 0 0 0 0 0
Wind_Speed
5 5 5 5 5 4 4 4 4 3 3 2 2 2 3 4 4 4 4 4 4 3 2 2 2 2 2 3 4 3 4 3 2 2 3 3 6 7 7 7 7 10 11
5 6 6 6 5 5 5 5 5 3 3 2 1 1 1 2 2 3 4 5 5 5 4 3 3 2 2 3 3 3 2 3 2 1 1 2 3 5 8 7 8 9 7
9 8 7 7 6 6 6 6 5 4 3 2 1 1 2 3 3 4 4 5 6 6 5 5 4 3 2 2 2 2 2 3 2 2 2 2 3 2 3 7 8 8 7
8 7 7 6 6 6 5 5 5 4 3 2 2 1 0 1 3 3 3 6 6 6 6 5 4 3 2 2 2 1 1 2 2 2 2 3 2 2 3 3 4 8 8
8 8 7 6 5 4 4 4 4 3 2 2 2 1 1 2 2 3 4 5 5 6 6 5 3 2 2 2 2 2 2 1 2 2 2 2 2 3 2 3 3 2 5
8 6 4 3 3 3 3 4 4 3 3 2 2 2 2 3 3 4 4 4 4 4 6 6 4 3 3 3 3 3 3 2 2 2 1 1 2 1 2 3 3 3 3
5 3 4 4 3 4 3 3 4 3 3 2 2 3 3 3 3 3 3 3 3 3 5 4 4 4 4 4 4 4 4 4 3 3 2 2 2 2 2 2 2 3 3
4 5 5 5 4 4 3 3 3 2 2 2 3 3 3 2 2 3 3 4 3 4 4 4 4 5 5 5 4 4 5 4 4 5 4 3 3 2 2 2 1 2 2
6 6 5 5 4 3 3 3 3 2 3 3 3 3 3 3 4 4 4 4 4 4 5 4 5 5 5 5 5 4 5 5 5 5 5 4 3 3 2 2 1 1 2
5 5 4 4 3 3 3 3 3 3 3 3 3 3 3 4 4 4 5 5 5 5 5 6 5 6 6 5 5 5 5 5 5 5 5 5 4 3 3 2 2 2 3
6 4 4 3 3 2 2 2 2 3 3 4 4 4 4 4 4 5 6 6 6 6 6 6 6 6 7 6 5 6 6 6 6 6 6 7 5 4 3 3 2 3 2
5 4 4 3 2 3 3 3 3 4 4 4 4 4 5 5 5 6 7 6 7 7 7 7 7 7 7 7 7 8 7 6 7 7 6 7 6 5 4 3 4 3 3
5 4 3 3 3 4 4 4 5 5 5 4 4 4 5 5 6 7 7 7 7 7 7 7 7 8 8 8 8 8 8 8 8 7 7 7 6 6 5 5 4 4 4
5 4 3 3 4 5 5 5 5 5 5 4 4 5 6 6 7 7 7 7 7 7 7 7 8 8 8 8 9 9 9 9 9 8 8 8 7 8 7 6 6 5 4
4 4 3 3 4 5 5 5 5 5 4 4 5 6 6 6 6 6 7 7 7 8 7 7 8 8 7 8 9 9 10 8 9 8 8 8 11 12 9 6 6 6 5
4 3 3 3 4 5 5 4 5 5 4 5 6 6 6 6 6 6 7 7 7 7 7 7 8 8 9 11 14 12 8 8 8 8 8 8 10 13 14 14 13 11 8
4 4 4 4 5 5 4 4 4 4 4 5 6 5 5 6 7 7 7 8 8 7 8 8 8 9 11 15 17 18 11 9 9 9 8 10 10 10 7 10 13 13 14
5 4 4 4 4 4 3 3 3 4 5 5 6 5 6 7 7 7 8 8 7 7 8 9 9 9 11 15 15 17 12 9 10 10 10 10 9 9 8 6 6 7 8
5 5 4 4 3 4 4 3 4 4 5 6 6 6 6 7 8 8 9 8 8 8 8 8 9 9 11 14 14 14 7 7 9 10 10 10 10 13 13 8 7 6 6
4 4 3 2 3 4 3 3 4 5 6 6 6 6 6 7 8 9 9 8 7 8 8 8 8 8 9 12 14 12 5 6 7 7 8 12 12 13 13 8 7 8 6
5 4 3 2 4 4 3 3 5 6 6 6 6 6 7 7 8 8 7 8 8 8 8 8 8 7 8 10 11 10 4 5 6 6 5 6 11 13 13 10 7 9 7
5 4 2 3 4 4 3 4 6 6 6 5 6 7 7 8 8 8 9 8 8 8 8 7 7 6 6 6 7 9 8 7 5 5 4 5 10 11 11 9 9 11 8
5 4 3 3 4 4 3 5 6 5 5 5 7 7 8 7 7 7 9 8 7 5 6 5 6 6 4 4 7 8 8 7 4 4 6 7 8 8 7 10 11 8 5
5 4 3 3 4 5 4 5 5 4 4 6 7 7 8 8 8 6 6 6 6 6 6 6 6 5 4 4 3 4 4 4 4 3 4 4 5 5 5 6 6 5 5
5 4 4 4 5 5 5 5 4 3 4 6 6 7 7 7 8 7 7 7 7 7 7 6 5 5 5 5 5 4 3 3 3 2 1 1 1 2 3 3 4 4 4
5 4 4 5 5 5 5 5 4 3 4 5 6 6 6 6 6 7 9 11 10 12 12 11 9 6 8 8 7 7 7 7 5 2 2 2 2 2 3 4 4 4 5
Wind_Direction
170 169 173 170 160 151 141 137 126 111 87 59 40 23 351 338 340 339 339 338 330 328 317 304 305 311 300 291 285 279 279 275 263 268 275 260 238 233 231 223 222 226 226
181 189 193 191 183 178 174 169 161 144 128 128 147 178 255 302 315 332 341 337 331 323 316 292 276 280 291 313 315 297 285 286 254 223 258 281 269 240 229 220 222 224 221
191 197 198 199 193 191 191 180 172 159 156 151 111 20 12 354 348 336 329 323 322 317 311 300 275 260 248 273 296 308 294 284 284 239 220 233 246 285 257 225 225 221 217
199 203 204 201 197 199 185 171 169 164 167 152 132 135 128 282 274 281 298 312 319 321 318 306 291 269 251 261 279 294 283 290 293 290 256 241 233 241 293 287 236 223 221
202 200 201 197 187 174 160 156 152 159 177 177 170 169 224 245 272 297 318 322 324 330 334 325 318 308 287 277 288 306 301 276 275 278 283 277 259 224 235 283 297 254 227
199 199 192 157 133 123 125 138 150 182 207 206 208 211 245 270 297 311 318 317 315 320 331 336 332 319 309 297 287 280 287 281 279 274 259 259 279 263 236 252 277 270 248
187 166 139 123 123 128 137 148 161 199 230 236 251 255 258 260 268 279 277 289 301 305 310 328 329 321 310 301 294 285 281 276 277 271 258 246 249 260 251 251 266 279 281
135 132 137 138 140 144 148 158 174 216 247 255 268 273 269 251 254 258 259 270 268 272 280 295 306 307 305 306 301 288 277 274 270 274 269 255 253 248 249 254 274 296 304
137 139 143 147 154 153 162 174 182 217 252 262 267 268 261 249 257 268 269 271 271 276 286 293 295 296 297 296 299 289 284 282 270 268 268 262 254 242 237 235 228 233 264
143 142 150 162 169 172 182 189 194 218 246 260 260 261 258 262 264 270 276 275 275 277 285 286 286 287 288 288 288 283 280 279 273 267 267 265 257 251 237 224 223 223 229
162 166 173 178 180 184 195 213 233 245 263 266 263 269 270 269 268 267 267 267 267 269 269 270 275 278 280 281 280 277 278 274 277 277 268 263 258 252 246 228 216 220 218
174 178 180 188 204 220 235 244 248 253 256 255 258 261 265 269 271 269 267 265 263 263 260 260 262 267 272 271 270 274 278 268 267 269 267 265 263 251 243 232 225 218 216
178 182 196 217 233 241 251 251 253 256 260 260 261 268 273 274 272 270 270 268 264 264 262 258 255 258 261 262 261 260 264 263 258 255 255 257 256 253 243 233 229 222 226
185 193 220 244 253 255 256 254 260 258 260 262 266 272 272 270 269 271 273 271 267 264 262 257 253 252 253 254 257 257 258 260 259 254 249 247 244 243 237 232 226 217 217
186 194 212 237 254 264 266 262 260 264 264 267 271 270 273 276 277 278 278 276 272 273 265 262 259 255 255 256 253 249 257 256 258 258 252 249 250 246 238 228 216 207 206
184 187 206 238 261 268 269 264 266 269 269 272 275 277 283 286 284 283 282 281 278 275 272 266 262 261 267 267 261 256 252 249 249 253 252 256 263 257 248 238 223 206 199
191 206 232 246 258 261 256 257 262 272 282 283 284 286 288 289 288 291 294 286 282 278 276 270 264 263 263 262 261 261 255 244 243 242 244 256 257 251 239 238 232 222 214
202 227 241 251 257 255 255 257 272 288 292 291 290 291 293 293 292 290 288 285 280 277 275 274 270 268 272 268 262 261 257 244 240 238 235 236 244 247 234 229 229 222 216
204 216 225 230 247 262 256 272 293 297 297 293 290 291 294 296 297 295 292 288 285 283 278 274 273 273 277 275 270 265 252 243 242 240 237 232 234 235 226 218 218 220 225
201 208 221 232 267 269 262 281 293 296 291 285 285 290 293 295 295 293 290 288 284 281 282 281 277 273 276 279 278 271 246 244 247 245 240 235 232 228 216 208 205 212 214
195 188 197 243 263 267 262 280 289 284 277 282 291 296 296 294 291 288 288 290 290 288 284 283 283 280 278 284 286 280 245 237 245 245 238 233 228 224 217 204 204 211 200
189 186 203 254 268 267 255 275 279 274 282 291 299 299 296 297 306 298 296 293 289 289 288 286 290 288 287 288 295 293 273 246 241 243 234 229 227 222 215 207 211 212 199
196 201 209 253 276 270 247 263 268 276 291 302 302 299 300 297 294 293 296 298 292 285 285 284 284 289 290 294 306 308 299 271 244 242 244 236 224 215 209 206 200 194 186
199 202 211 253 273 269 258 251 263 275 291 299 299 298 301 303 303 296 290 289 288 287 285 281 279 282 286 288 303 310 308 293 270 264 265 247 212 198 187 182 182 181 183
199 195 208 237 256 262 265 263 262 269 290 295 294 297 296 298 302 299 290 286 276 265 266 268 262 265 276 269 274 285 288 283 272 280 265 225 174 169 166 164 168 180 183
189 195 215 233 251 259 265 262 252 256 283 296 298 297 300 301 300 302 306 297 284 284 273 256 249 251 249 265 276 281 285 286 279 265 241 233 210 193 181 176 177 189 193